[[{"header":{"parameterUnit":"m.s-1","parameterCategory":2,"la1":30.2991,"la2":30.254,"lo1":-89.0895,"lo2":-89.0444,"dy":0.0017,"dx":0.0017,"nx":28,"ny":28,"refTime":"2023-07-18T03:00:00:Z","depth":"0","parameterNumber":2,"parameterNumberName":"U-component_of_CURRENTS"},"data":[0,0,0,0,0,0,0,0,0,0,0,0,0,0,0,0,0,0,0,0,0,0,0,0,0,0,0,0,0,0,0,0,0,0,0,0,0,0,0,0,0,0,0,0,0,0,0,0,0,0,0,0,0,0,0,0,0,0,0.2354,0.2354,0,0.2344,0.2343,0.2343,0.2286,0.2286,0.2285,0.2284,0.2169,0.2166,0.2164,0,0,0,0,0,0,0,0,0,0,0,0,0,0.2252,0.2254,0.2354,0.2354,0.2355,0.2344,0.2343,0.2342,0.2287,0.2286,0.2285,0.2284,0.2169,0.2166,0.2163,0,0,0,0,0,0,0,0,0,0,0,0,0,0.2268,0.2254,0.2354,0.2331,0.233,0.2344,0.2343,0.2342,0.2287,0.2286,0.2285,0.2284,0.217,0.2167,0.2163,0.2161,0,0,0.2152,0.215,0,0,0,0,0,0,0,0,0.2267,0.2271,0.2334,0.2333,0.2331,0.2322,0.2265,0.2279,0.2287,0.2295,0.2284,0.2283,0.2215,0.2208,0.22,0.2155,0.215,0.2152,0.2149,0.2148,0.2147,0,0,0,0,0,0,0,0.2266,0.227,0.2343,0.2335,0.2333,0.2297,0.2298,0.2267,0.2254,0.2295,0.2292,0.2303,0.2213,0.2203,0.2196,0.2149,0.2152,0.2148,0.2146,0.2145,0.2244,0.2248,0,0,0,0,0,0,0.2287,0.227,0.2343,0.2343,0.2304,0.2301,0.2301,0.232,0.2256,0.2249,0.2304,0.2301,0.221,0.2201,0.2192,0.2271,0.2148,0.2144,0.2142,0.2239,0.2245,0.225,0,0,0,0,0,0,0.2285,0.2294,0.2344,0.2311,0.2316,0.2305,0.2325,0.232,0.232,0.2266,0.2254,0.2311,0.2209,0.2197,0.2205,0.2263,0.2143,0.2139,0.2233,0.2241,0.2247,0.2374,0,0,0,0,0,0,0.2282,0.2294,0.231,0.2313,0.2319,0.2368,0.2327,0.2321,0.2332,0.2327,0.2268,0.2256,0.2207,0.2211,0.2201,0.2255,0.2136,0.2227,0.2236,0.2245,0.2364,0.2385,0.2403,0,0,0,0,0,0.2279,0.2309,0.2311,0.232,0.2343,0.237,0.2369,0.2352,0.2333,0.2344,0.2324,0.2258,0.2263,0.2211,0.2198,0.2253,0.2223,0.2234,0.2244,0.2355,0.238,0.2402,0,0,0,0,0,0,0.2276,0.2307,0.2309,0.2348,0.2367,0.2364,0.2374,0.2367,0.2358,0.2351,0.2294,0.2282,0.2319,0.2282,0.2227,0.2321,0.2242,0.2251,0.2331,0.2354,0.2374,0.241,0.2133,0,0,0,0,0,0.2287,0.2315,0.234,0.2373,0.2385,0.2383,0.239,0.2385,0.2383,0.2377,0.2345,0.2335,0.2355,0.2349,0.2344,0.2373,0.2464,0.2416,0.2435,0.2451,0.2482,0.2752,0.2799,0.2286,0.2286,0.2285,0,0,0.2299,0.2319,0.2336,0.2374,0.2381,0.2404,0.2383,0.2407,0.2428,0.2366,0.238,0.2389,0.2382,0.2429,0.2444,0.24,0.2641,0.2465,0.2478,0.25,0.2768,0.2819,0.2864,0.2293,0.2292,0.2291,0,0,0.2334,0.2353,0.2385,0.24,0.2429,0.243,0.2446,0.2457,0.2464,0.2485,0.2481,0.256,0.2511,0.2579,0.2592,0.2727,0.2738,0.27,0.2814,0.3076,0.3121,0.3162,0.3317,0.3371,0.2706,0.2707,0.2707,0,0.2344,0.239,0.24,0.2428,0.2442,0.2447,0.2477,0.2493,0.2507,0.2549,0.2502,0.2619,0.2608,0.2754,0.2797,0.2774,0.2881,0.271,0.3105,0.3147,0.3187,0.3336,0.3394,0.2714,0.2713,0.2712,0.2712,0,0.2402,0.243,0.2451,0.2485,0.25,0.2532,0.2554,0.2588,0.2592,0.2625,0.2757,0.2799,0.2886,0.2905,0.287,0.3144,0.3112,0.3101,0.3043,0.3247,0.339,0.3448,0.2725,0.2722,0.272,0.2718,0,0,0.2469,0.2485,0.2491,0.2521,0.2532,0.2567,0.2607,0.2682,0.276,0.2808,0.2947,0.3039,0.3101,0.3132,0.316,0.3368,0.3722,0.3342,0.3353,0.349,0.4248,0.4207,0.4264,0.3784,0.3795,0.3804,0.4224,0,0.2518,0.2569,0.2552,0.2613,0.2662,0.2657,0.2699,0.2766,0.2825,0.2958,0.3091,0.3217,0.3175,0.3254,0.3467,0.3653,0.3885,0.3605,0.4034,0.4046,0.3984,0.4336,0.4203,0.4567,0.4281,0.429,0.4297,0,0.2617,0.2631,0.268,0.2717,0.2732,0.2746,0.2851,0.289,0.3053,0.3115,0.3292,0.3377,0.3666,0.3616,0.41,0.3917,0.411,0.4256,0.4276,0.424,0.4118,0.4326,0.4683,0.4495,0.4386,0.4379,0.4373,0,0.2753,0.2748,0.2787,0.2796,0.2819,0.284,0.2846,0.2953,0.3052,0.3252,0.3388,0.3662,0.3864,0.4163,0.4405,0.4303,0.4935,0.4839,0.4993,0.4986,0.4962,0.4935,0.5191,0.5272,0.5271,0.527,0.5269,0,0.2896,0.2959,0.284,0.2899,0.2973,0.291,0.3044,0.3097,0.3218,0.3407,0.3499,0.374,0.4032,0.4365,0.455,0.496,0.5081,0.5116,0.5161,0.4993,0.4966,0.4862,0.479,0.5286,0.5282,0.5279,0.5276,0,0.3181,0.3077,0.3173,0.3107,0.3078,0.316,0.318,0.3283,0.3341,0.3605,0.369,0.3933,0.4322,0.4583,0.508,0.5181,0.5428,0.5642,0.5357,0.5364,0.5265,0.5204,0.5371,0.5271,0.5913,0.5915,0.5917,0,0.3372,0.3405,0.3366,0.3382,0.3369,0.3404,0.3431,0.3414,0.352,0.3745,0.3911,0.4262,0.4534,0.5146,0.5404,0.5771,0.5577,0.5846,0.5657,0.5347,0.5316,0.5012,0.489,0.5663,0.5663,0.5663,0.5663,0,0.3691,0.3638,0.3663,0.3669,0.3673,0.3725,0.3729,0.382,0.3829,0.3983,0.4196,0.4384,0.4899,0.5186,0.5593,0.5792,0.556,0.5854,0.5686,0.5317,0.4867,0.4755,0.5194,0.5662,0.5662,0.5662,0.5662,0.5662,0.3878,0.3948,0.3845,0.3891,0.391,0.3914,0.392,0.3938,0.4019,0.4115,0.4348,0.4541,0.4946,0.5471,0.5597,0.5682,0.5631,0.5605,0.5612,0.5365,0.5122,0.5504,0.5907,0.5908,0.5909,0.591,0.5911,0,0.3948,0.3944,0.4019,0.3969,0.3995,0.3968,0.3995,0.3941,0.3957,0.4164,0.4281,0.4646,0.4942,0.5204,0.5506,0.5446,0.5183,0.5334,0.4884,0.4825,0.5348,0.5179,0.5256,0.5256,0.5256,0.5256,0.5256,0.5257,0.3937,0.3944,0.3955,0.3931,0.3931,0.3836,0.3816,0.3791,0.3869,0.3972,0.4117,0.4317,0.4699,0.512,0.5168,0.5114,0.4776,0.4641,0.4602,0.4938,0.4957,0.4975,0.4795,0.4791,0.479,0.3841,0.3834,0.383]},{"header":{"parameterUnit":"m.s-1","parameterCategory":2,"la1":30.2991,"la2":30.254,"lo1":-89.0895,"lo2":-89.0444,"dy":0.0017,"dx":0.0017,"nx":28,"ny":28,"refTime":"2023-07-18T03:00:00:Z","depth":"0","parameterNumber":3,"parameterNumberName":"V-component_of_CURRENTS"},"data":[0,0,0,0,0,0,0,0,0,0,0,0,0,0,0,0,0,0,0,0,0,0,0,0,0,0,0,0,0,0,0,0,0,0,0,0,0,0,0,0,0,0,0,0,0,0,0,0,0,0,0,0,0,0,0,0,0,0,-0.0522,-0.0523,0,-0.0567,-0.0567,-0.0568,-0.0562,-0.0562,-0.0561,-0.0561,-0.0607,-0.0609,-0.0611,0,0,0,0,0,0,0,0,0,0,0,0,0,-0.0411,-0.0413,-0.0522,-0.0523,-0.0524,-0.0567,-0.0567,-0.0568,-0.0562,-0.0562,-0.0561,-0.056,-0.0607,-0.0609,-0.0611,0,0,0,0,0,0,0,0,0,0,0,0,0,-0.0456,-0.0414,-0.0522,-0.0528,-0.0529,-0.0567,-0.0567,-0.0568,-0.0563,-0.0562,-0.0561,-0.056,-0.0606,-0.0609,-0.0611,-0.0644,0,0,-0.0619,-0.062,0,0,0,0,0,0,0,0,-0.0454,-0.046,-0.0526,-0.0527,-0.0529,-0.056,-0.0545,-0.0594,-0.0563,-0.0548,-0.0561,-0.056,-0.0593,-0.0597,-0.0605,-0.0647,-0.0649,-0.0619,-0.0621,-0.0622,-0.0623,0,0,0,0,0,0,0,-0.0451,-0.0458,-0.0538,-0.0527,-0.0529,-0.052,-0.0526,-0.0554,-0.0574,-0.0549,-0.0549,-0.0557,-0.0594,-0.0602,-0.0606,-0.0649,-0.0619,-0.0622,-0.0623,-0.0624,-0.0612,-0.061,0,0,0,0,0,0,-0.0451,-0.0456,-0.0537,-0.054,-0.049,-0.0523,-0.0529,-0.0549,-0.0573,-0.0577,-0.0558,-0.0557,-0.0598,-0.0603,-0.0607,-0.0538,-0.0622,-0.0625,-0.0626,-0.0614,-0.0611,-0.0609,0,0,0,0,0,0,-0.0449,-0.0458,-0.0535,-0.0499,-0.0508,-0.0526,-0.0548,-0.0551,-0.0563,-0.058,-0.0583,-0.0568,-0.0598,-0.0604,-0.063,-0.0544,-0.0626,-0.0628,-0.0616,-0.0613,-0.061,-0.0471,0,0,0,0,0,0,-0.0446,-0.0458,-0.0479,-0.05,-0.051,-0.0569,-0.055,-0.0552,-0.057,-0.0569,-0.0591,-0.0593,-0.0597,-0.0626,-0.0633,-0.0549,-0.063,-0.0619,-0.0615,-0.0611,-0.0478,-0.0463,-0.0451,0,0,0,0,0,-0.0442,-0.0482,-0.048,-0.049,-0.0538,-0.057,-0.0575,-0.0583,-0.0571,-0.0588,-0.059,-0.0593,-0.0605,-0.0629,-0.0637,-0.0551,-0.062,-0.0616,-0.0612,-0.0484,-0.0466,-0.0451,0,0,0,0,0,0,-0.0461,-0.0486,-0.0484,-0.0534,-0.0552,-0.057,-0.0593,-0.0589,-0.0605,-0.0601,-0.0606,-0.061,-0.0587,-0.0611,-0.0637,-0.0537,-0.0599,-0.0596,-0.0498,-0.0482,-0.0469,-0.0352,-0.0633,0,0,0,0,0,-0.0471,-0.0499,-0.0519,-0.056,-0.0569,-0.0578,-0.0593,-0.0594,-0.0608,-0.0614,-0.0623,-0.0612,-0.0575,-0.0568,-0.0572,-0.0549,-0.0481,-0.0489,-0.0476,-0.0464,-0.0374,-0.0185,-0.0143,-0.0595,-0.0595,-0.0595,0,0,-0.0491,-0.0509,-0.0527,-0.0564,-0.0577,-0.0571,-0.0586,-0.0612,-0.0576,-0.0619,-0.0593,-0.059,-0.0567,-0.0516,-0.0504,-0.0525,-0.0322,-0.0459,-0.0448,-0.0363,-0.0175,-0.013,-0.0089,-0.0592,-0.0593,-0.0593,0,0,-0.0522,-0.0559,-0.0573,-0.0583,-0.0602,-0.0594,-0.06,-0.0615,-0.0592,-0.0592,-0.0559,-0.0485,-0.0527,-0.0412,-0.0372,-0.0291,-0.0268,-0.0326,-0.0146,0.0035,0.0077,0.0114,0.0176,0.0219,-0.0304,-0.0304,-0.0303,0,-0.0536,-0.055,-0.0586,-0.059,-0.0568,-0.0596,-0.0567,-0.056,-0.0574,-0.0488,-0.0577,-0.0414,-0.0432,-0.0204,-0.0178,-0.0242,-0.0193,-0.0209,0.0062,0.0101,0.0138,0.0193,0.0238,-0.0296,-0.0297,-0.0298,-0.0299,0,-0.055,-0.0559,-0.0573,-0.0558,-0.0549,-0.0548,-0.0517,-0.0489,-0.0473,-0.0407,-0.024,-0.023,-0.0087,-0.0094,-0.0123,0.0158,0.0084,0.0048,0.0038,0.0194,0.0237,0.0283,-0.0286,-0.0289,-0.0291,-0.0293,0,0,-0.053,-0.0571,-0.056,-0.0515,-0.0516,-0.0485,-0.042,-0.0293,-0.0144,-0.0144,0.0094,0.0164,0.0231,0.0286,0.0303,0.0452,0.0685,0.036,0.0365,0.045,0.1013,0.0858,0.089,0.0693,0.0703,0.0711,0.0911,0,-0.0497,-0.0473,-0.0499,-0.0419,-0.0371,-0.035,-0.0249,-0.0132,-0.0042,0.0158,0.0295,0.0469,0.036,0.0458,0.0605,0.0694,0.0823,0.0631,0.0828,0.0834,0.0706,0.0948,0.0862,0.1028,0.0955,0.0962,0.0968,0,-0.0415,-0.0416,-0.0339,-0.0248,-0.0219,-0.0174,0.0071,0.0145,0.0406,0.0492,0.0716,0.0798,0.1073,0.0914,0.1212,0.1085,0.1079,0.1104,0.1111,0.0983,0.077,0.0876,0.1112,0.0776,0.1036,0.1031,0.1026,0,-0.0236,-0.0245,-0.0158,-0.0143,-0.008,0.0007,0.0067,0.0289,0.0452,0.0745,0.0923,0.1195,0.1371,0.1474,0.1472,0.1378,0.1742,0.1615,0.1473,0.1454,0.144,0.1405,0.1427,0.1845,0.1845,0.1844,0.1844,0,-0.0091,-0.0006,-0.0077,-0.0015,0.0146,0.0145,0.0392,0.0498,0.0743,0.1027,0.1129,0.1414,0.1526,0.1705,0.1651,0.1717,0.1889,0.1603,0.1566,0.1464,0.1431,0.1177,0.0978,0.1851,0.185,0.1848,0.1847,0,0.0175,0.0109,0.0218,0.023,0.0248,0.0387,0.0529,0.0725,0.09,0.1277,0.1389,0.1673,0.1905,0.1936,0.2113,0.1953,0.1827,0.1949,0.1751,0.1687,0.1198,0.1008,0.1168,0.0968,0.1889,0.1887,0.1886,0,0.0332,0.0398,0.0414,0.0469,0.0475,0.061,0.0732,0.0838,0.1044,0.1451,0.1679,0.1973,0.2242,0.238,0.2196,0.212,0.1837,0.1874,0.1704,0.1254,0.1019,0.0957,0.0769,0.1701,0.1699,0.1696,0.1695,0,0.0608,0.06,0.0644,0.0731,0.0817,0.0954,0.1102,0.1271,0.1471,0.1749,0.2146,0.2377,0.2494,0.2436,0.2222,0.21,0.159,0.1818,0.1499,0.1037,0.0849,0.0603,0.137,0.1675,0.1677,0.1678,0.1679,0.168,0.0801,0.0875,0.0878,0.099,0.1099,0.1274,0.1414,0.1595,0.1892,0.2296,0.2462,0.2813,0.2635,0.2388,0.2049,0.1376,0.1458,0.1149,0.1003,0.1019,0.0715,0.1363,0.151,0.1511,0.1512,0.1513,0.1514,0,0.0965,0.0995,0.1119,0.122,0.1384,0.1394,0.1652,0.1805,0.2126,0.251,0.2819,0.3022,0.2555,0.2091,0.1244,0.0663,0.0476,0.037,0.0268,0.0143,0.0872,0.0736,0.0547,0.0547,0.0547,0.0548,0.0548,0.0548,0.1027,0.1119,0.116,0.1414,0.1523,0.1731,0.1874,0.2125,0.241,0.2885,0.3184,0.3449,0.3251,0.1544,0.0286,-0.0052,-0.0502,-0.051,-0.0734,-0.0311,-0.0251,-0.0193,-0.0365,-0.0782,-0.0784,-0.1413,-0.142,-0.1426]}],[{"header":{"parameterUnit":"m.s-1","parameterCategory":2,"la1":30.2991,"la2":30.254,"lo1":-89.0895,"lo2":-89.0444,"dy":0.0017,"dx":0.0017,"nx":28,"ny":28,"refTime":"2023-07-18T03:00:00:Z","depth":"2","parameterNumber":2,"parameterNumberName":"U-component_of_CURRENTS"},"data":[0,0,0,0,0,0,0,0,0,0,0,0,0,0,0,0,0,0,0,0,0,0,0,0,0,0,0,0,0,0,0,0,0,0,0,0,0,0,0,0,0,0,0,0,0,0,0,0,0,0,0,0,0,0,0,0,0,0,0.1729,0.1729,0,0.1757,0.1757,0.1757,0.1742,0.1742,0.1741,0.174,0.1742,0.1743,0.1743,0,0,0,0,0,0,0,0,0,0,0,0,0,0.1642,0.1644,0.1729,0.1729,0.173,0.1757,0.1757,0.1757,0.1742,0.1742,0.1741,0.174,0.1742,0.1743,0.1743,0,0,0,0,0,0,0,0,0,0,0,0,0,0.1675,0.1644,0.1729,0.1727,0.1727,0.1757,0.1757,0.1758,0.1742,0.1742,0.1741,0.174,0.1742,0.1743,0.1743,0.1768,0,0,0.1746,0.1747,0,0,0,0,0,0,0,0,0.1673,0.1678,0.1726,0.1727,0.1727,0.1746,0.1727,0.176,0.1743,0.1735,0.174,0.1739,0.1743,0.1744,0.1749,0.1768,0.1768,0.1746,0.1747,0.1747,0.1748,0,0,0,0,0,0,0,0.1671,0.1676,0.1738,0.1727,0.1727,0.1718,0.1721,0.1733,0.1742,0.1736,0.1735,0.1741,0.1742,0.1748,0.1749,0.1768,0.1746,0.1747,0.1748,0.1748,0.1838,0.1839,0,0,0,0,0,0,0.1673,0.1675,0.1738,0.1739,0.1699,0.172,0.1724,0.174,0.1743,0.1743,0.1741,0.174,0.1747,0.1748,0.1749,0.1808,0.1747,0.1748,0.1749,0.1836,0.1838,0.184,0,0,0,0,0,0,0.1671,0.1678,0.1736,0.1708,0.1715,0.1723,0.1741,0.1741,0.1755,0.1748,0.1747,0.1756,0.1746,0.1748,0.1775,0.1807,0.1749,0.175,0.1834,0.1836,0.1839,0.1908,0,0,0,0,0,0,0.1668,0.1678,0.1693,0.1709,0.1716,0.1765,0.1742,0.1742,0.176,0.1759,0.176,0.1759,0.1746,0.1774,0.1776,0.1807,0.175,0.1831,0.1835,0.1838,0.1903,0.1912,0.192,0,0,0,0,0,0.1665,0.1692,0.1694,0.1702,0.1737,0.1766,0.177,0.177,0.1762,0.1777,0.178,0.1759,0.1796,0.1776,0.1778,0.181,0.183,0.1834,0.1838,0.1899,0.1911,0.192,0,0,0,0,0,0,0.1662,0.1694,0.1696,0.1731,0.1751,0.1764,0.1782,0.1782,0.1797,0.1796,0.1783,0.1783,0.1818,0.1809,0.1787,0.1847,0.181,0.1815,0.1856,0.1866,0.1875,0.1872,0.1751,0,0,0,0,0,0.1671,0.17,0.1722,0.1752,0.1765,0.1777,0.179,0.1791,0.1805,0.181,0.1813,0.182,0.1837,0.1847,0.1856,0.1892,0.1919,0.1915,0.1923,0.1931,0.1932,0.2017,0.2034,0.1853,0.1853,0.1853,0,0,0.1676,0.1699,0.1714,0.1753,0.177,0.1794,0.1783,0.1811,0.1827,0.181,0.1839,0.185,0.1854,0.1891,0.1907,0.1888,0.2001,0.1936,0.1942,0.1939,0.2024,0.2041,0.2057,0.1856,0.1855,0.1855,0,0,0.1702,0.1727,0.1756,0.1776,0.1808,0.1817,0.1829,0.1852,0.1861,0.1893,0.1888,0.1921,0.194,0.1955,0.1963,0.2028,0.2043,0.2035,0.2078,0.2162,0.2178,0.2192,0.2268,0.2288,0.204,0.204,0.204,0,0.1706,0.1747,0.1769,0.1799,0.1817,0.183,0.1857,0.1874,0.1901,0.1923,0.1908,0.1973,0.197,0.203,0.2046,0.2047,0.2099,0.2036,0.2174,0.2189,0.2202,0.2277,0.2298,0.2044,0.2043,0.2043,0.2043,0,0.1751,0.1779,0.1801,0.1841,0.1864,0.1894,0.1916,0.1944,0.1956,0.1974,0.2037,0.205,0.2094,0.21,0.2087,0.2184,0.2193,0.2176,0.2148,0.2224,0.2298,0.232,0.2049,0.2048,0.2047,0.2046,0,0,0.1772,0.1821,0.1829,0.1844,0.1888,0.1909,0.1951,0.1997,0.204,0.2067,0.2139,0.2161,0.2186,0.2198,0.2207,0.2264,0.2399,0.2263,0.2266,0.2339,0.2602,0.2553,0.2571,0.242,0.2423,0.2426,0.2623,0,0.18,0.1847,0.1871,0.1913,0.1936,0.1963,0.2002,0.2043,0.2088,0.2164,0.2198,0.2269,0.2221,0.227,0.232,0.2392,0.2456,0.2348,0.2516,0.252,0.2468,0.2594,0.232,0.2467,0.2643,0.2647,0.2649,0,0.1839,0.1861,0.1903,0.1944,0.196,0.1987,0.2062,0.2103,0.2202,0.2245,0.2324,0.2372,0.2475,0.2423,0.2577,0.252,0.2564,0.2599,0.2608,0.2548,0.2511,0.2416,0.2499,0.2685,0.2682,0.2679,0.2677,0,0.1838,0.1886,0.1916,0.1931,0.1981,0.2009,0.2045,0.2129,0.2191,0.2325,0.2411,0.2513,0.261,0.2679,0.2762,0.2693,0.2941,0.2855,0.2847,0.2844,0.2633,0.2605,0.2961,0.2961,0.296,0.296,0.2959,0,0.1859,0.1882,0.1915,0.1929,0.1967,0.2011,0.2088,0.2139,0.2265,0.2379,0.2464,0.2604,0.2684,0.2832,0.2853,0.2951,0.3028,0.2886,0.2904,0.265,0.2623,0.281,0.2789,0.2967,0.2965,0.2964,0.2963,0,0.185,0.1881,0.1902,0.1945,0.1965,0.1991,0.2094,0.2163,0.2287,0.2455,0.252,0.2722,0.2936,0.3021,0.3177,0.3084,0.3169,0.3176,0.2874,0.285,0.2981,0.2962,0.3165,0.3165,0.3165,0.3165,0.3165,0,0.1837,0.1851,0.1892,0.1903,0.1921,0.1977,0.2031,0.2152,0.2252,0.254,0.2638,0.2906,0.3066,0.3278,0.3228,0.3275,0.3317,0.2995,0.2779,0.3011,0.3009,0.2989,0.2971,0.2538,0.2533,0.2529,0.2526,0,0.1781,0.1805,0.1813,0.1848,0.189,0.1958,0.2057,0.2137,0.2333,0.2507,0.2785,0.2943,0.3148,0.3095,0.3127,0.3083,0.2954,0.291,0.3291,0.2519,0.2434,0.2426,0.2426,0.2489,0.2493,0.2495,0.2497,0.2499,0.1706,0.1697,0.1716,0.1759,0.1823,0.1914,0.1963,0.2115,0.2283,0.2471,0.2711,0.282,0.2862,0.2776,0.2756,0.269,0.2837,0.262,0.2628,0.264,0.2523,0.2442,0.2477,0.2481,0.2484,0.2486,0.2489,0,0.1566,0.1597,0.1626,0.1672,0.1735,0.1822,0.1963,0.2011,0.2185,0.2328,0.2491,0.2283,0.2282,0.2385,0.2216,0.2176,0.2082,0.2095,0.1949,0.1987,0.2021,0.1866,0.165,0.1647,0.1645,0.1643,0,0,0.1473,0.1453,0.1497,0.1557,0.164,0.1719,0.1795,0.1882,0.197,0.1954,0.195,0.2076,0.2243,0.1891,0.1867,0.1763,0.1851,0.1679,0.2346,0.2212,0.2243,0.2317,0.2122,0,0,0,0,0]},{"header":{"parameterUnit":"m.s-1","parameterCategory":2,"la1":30.2991,"la2":30.254,"lo1":-89.0895,"lo2":-89.0444,"dy":0.0017,"dx":0.0017,"nx":28,"ny":28,"refTime":"2023-07-18T03:00:00:Z","depth":"2","parameterNumber":3,"parameterNumberName":"V-component_of_CURRENTS"},"data":[0,0,0,0,0,0,0,0,0,0,0,0,0,0,0,0,0,0,0,0,0,0,0,0,0,0,0,0,0,0,0,0,0,0,0,0,0,0,0,0,0,0,0,0,0,0,0,0,0,0,0,0,0,0,0,0,0,0,-0.0548,-0.0549,0,-0.0645,-0.0646,-0.0647,-0.0723,-0.0723,-0.0724,-0.0725,-0.0797,-0.0798,-0.08,0,0,0,0,0,0,0,0,0,0,0,0,0,-0.049,-0.0491,-0.0548,-0.0549,-0.055,-0.0645,-0.0646,-0.0647,-0.0723,-0.0724,-0.0724,-0.0725,-0.0797,-0.0798,-0.08,0,0,0,0,0,0,0,0,0,0,0,0,0,-0.0543,-0.0491,-0.0548,-0.06,-0.0605,-0.0645,-0.0646,-0.0648,-0.0722,-0.0724,-0.0725,-0.0726,-0.0796,-0.0798,-0.08,-0.0788,0,0,-0.0805,-0.0806,0,0,0,0,0,0,0,0,-0.054,-0.0545,-0.0591,-0.0596,-0.0603,-0.0674,-0.0653,-0.0694,-0.0722,-0.0677,-0.0725,-0.0726,-0.0753,-0.0758,-0.0774,-0.0791,-0.0794,-0.0806,-0.0807,-0.0807,-0.0808,0,0,0,0,0,0,0,-0.0536,-0.0542,-0.0586,-0.0592,-0.0599,-0.064,-0.0648,-0.0661,-0.0706,-0.0681,-0.0687,-0.0699,-0.0756,-0.0772,-0.0776,-0.0795,-0.0805,-0.0807,-0.0808,-0.0809,-0.0873,-0.0874,0,0,0,0,0,0,-0.0521,-0.0538,-0.0583,-0.0589,-0.0574,-0.064,-0.0649,-0.0649,-0.0707,-0.0718,-0.0697,-0.0702,-0.0768,-0.0774,-0.0779,-0.0825,-0.0807,-0.0809,-0.081,-0.0873,-0.0874,-0.0874,0,0,0,0,0,0,-0.0519,-0.0523,-0.0579,-0.0567,-0.0577,-0.0639,-0.0639,-0.065,-0.0682,-0.072,-0.073,-0.0719,-0.0769,-0.0776,-0.0809,-0.0826,-0.081,-0.0812,-0.0872,-0.0873,-0.0874,-0.0879,0,0,0,0,0,0,-0.0517,-0.0522,-0.0523,-0.0565,-0.0577,-0.0598,-0.0638,-0.0651,-0.0687,-0.0694,-0.0741,-0.0749,-0.0771,-0.0806,-0.081,-0.0828,-0.0813,-0.0871,-0.0872,-0.0874,-0.0878,-0.088,-0.0882,0,0,0,0,0,-0.0514,-0.0502,-0.0522,-0.0528,-0.0574,-0.0597,-0.0606,-0.0655,-0.0687,-0.069,-0.0737,-0.0748,-0.0817,-0.0807,-0.0813,-0.0831,-0.0871,-0.0872,-0.0873,-0.0877,-0.088,-0.0882,0,0,0,0,0,0,-0.0477,-0.0509,-0.0533,-0.0532,-0.0563,-0.061,-0.0623,-0.0657,-0.0698,-0.0712,-0.0752,-0.0762,-0.08,-0.081,-0.0799,-0.0854,-0.0847,-0.0849,-0.0848,-0.085,-0.0852,-0.081,-0.0814,0,0,0,0,0,-0.0469,-0.0471,-0.0509,-0.0511,-0.0524,-0.0577,-0.0597,-0.0629,-0.0669,-0.0689,-0.0728,-0.0769,-0.0806,-0.0824,-0.0851,-0.0873,-0.0876,-0.0889,-0.0891,-0.0892,-0.0862,-0.0906,-0.0909,-0.0879,-0.0879,-0.0879,0,0,-0.0457,-0.0476,-0.0479,-0.0504,-0.0536,-0.0547,-0.0592,-0.0618,-0.064,-0.0688,-0.0731,-0.0775,-0.0814,-0.085,-0.0867,-0.0862,-0.0903,-0.0894,-0.0895,-0.0863,-0.0908,-0.0911,-0.0914,-0.088,-0.088,-0.088,0,0,-0.043,-0.045,-0.0443,-0.0462,-0.0502,-0.0532,-0.0539,-0.0592,-0.0629,-0.0669,-0.0721,-0.0769,-0.0818,-0.0855,-0.0879,-0.09,-0.0914,-0.0919,-0.0893,-0.0938,-0.094,-0.0942,-0.095,-0.0952,-0.0919,-0.0919,-0.0919,0,-0.042,-0.0416,-0.0446,-0.0445,-0.0464,-0.0522,-0.0526,-0.0562,-0.0624,-0.065,-0.0679,-0.0769,-0.0817,-0.0857,-0.088,-0.0904,-0.0918,-0.0884,-0.0939,-0.0942,-0.0944,-0.0951,-0.0954,-0.0919,-0.0919,-0.0919,-0.0919,0,-0.0387,-0.0391,-0.0388,-0.0408,-0.0427,-0.044,-0.049,-0.0523,-0.0579,-0.062,-0.0677,-0.0743,-0.0788,-0.0831,-0.0867,-0.0908,-0.0909,-0.094,-0.0931,-0.0947,-0.0954,-0.0956,-0.092,-0.0919,-0.0919,-0.0919,0,0,-0.0371,-0.0365,-0.0372,-0.0375,-0.0413,-0.0426,-0.0457,-0.0501,-0.0508,-0.0589,-0.06,-0.0707,-0.0739,-0.0766,-0.0823,-0.0872,-0.0925,-0.0911,-0.0914,-0.0911,-0.0998,-0.0947,-0.0945,-0.0975,-0.0976,-0.0976,-0.0997,0,-0.0352,-0.0332,-0.034,-0.0342,-0.0346,-0.0391,-0.0404,-0.0449,-0.0491,-0.0509,-0.0596,-0.0615,-0.0715,-0.0723,-0.0801,-0.087,-0.0932,-0.0913,-0.0987,-0.0988,-0.0936,-0.0947,-0.0912,-0.0923,-0.1,-0.1,-0.1,0,-0.0344,-0.033,-0.0317,-0.0312,-0.0316,-0.0322,-0.035,-0.036,-0.0396,-0.0415,-0.0459,-0.0502,-0.0566,-0.0648,-0.079,-0.0774,-0.0888,-0.0959,-0.0963,-0.0904,-0.0941,-0.092,-0.0925,-0.1005,-0.1005,-0.1005,-0.1004,0,-0.0352,-0.0329,-0.0319,-0.032,-0.0314,-0.0322,-0.0322,-0.0346,-0.0316,-0.033,-0.0277,-0.0393,-0.0387,-0.0558,-0.0705,-0.0753,-0.0841,-0.0928,-0.0993,-0.0989,-0.0962,-0.0955,-0.105,-0.105,-0.105,-0.105,-0.105,0,-0.0354,-0.0356,-0.0318,-0.0318,-0.0295,-0.0297,-0.0259,-0.0271,-0.0216,-0.0122,-0.0212,-0.0131,-0.0366,-0.0437,-0.064,-0.0783,-0.0797,-0.0965,-0.0991,-0.0962,-0.0955,-0.1029,-0.1026,-0.1051,-0.1051,-0.1051,-0.1051,0,-0.0399,-0.0369,-0.0356,-0.0322,-0.0304,-0.0295,-0.0194,-0.013,-0.0084,0.0054,0.0081,0.0073,0.0004,-0.022,-0.0447,-0.0642,-0.0818,-0.0883,-0.0805,-0.0821,-0.0962,-0.096,-0.0965,-0.0963,-0.0962,-0.0961,-0.096,0,-0.0424,-0.0418,-0.0364,-0.0325,-0.0312,-0.0257,-0.0181,-0.0097,0.0027,0.0209,0.0313,0.0305,0.0341,0.0055,-0.0297,-0.0608,-0.0711,-0.079,-0.0896,-0.0928,-0.0954,-0.0953,-0.0953,-0.0871,-0.0869,-0.0868,-0.0867,0,-0.0467,-0.0451,-0.0422,-0.0326,-0.0246,-0.0123,0.0013,0.0149,0.032,0.0492,0.0734,0.0786,0.053,0.025,-0.0187,-0.0415,-0.0739,-0.0771,-0.0824,-0.0885,-0.0838,-0.0863,-0.0866,-0.0855,-0.0856,-0.0857,-0.0857,-0.0858,-0.0493,-0.0472,-0.0392,-0.0299,-0.0183,0.0044,0.021,0.043,0.0703,0.1007,0.1005,0.1082,0.0687,0.0156,-0.0177,-0.0564,-0.062,-0.0805,-0.0811,-0.0817,-0.079,-0.0742,-0.0734,-0.0734,-0.0734,-0.0735,-0.0735,0,-0.0466,-0.0415,-0.0343,-0.0165,0.0025,0.0069,0.0385,0.0629,0.1022,0.1177,0.1364,0.1035,0.0706,0.0284,-0.0276,-0.0618,-0.0676,-0.0708,-0.0739,-0.0749,-0.0758,-0.073,-0.0657,-0.0657,-0.0657,-0.0657,0,0,-0.0433,-0.0339,-0.0276,0.0031,0.0164,0.0492,0.0709,0.1048,0.1246,0.1468,0.1458,0.1317,0.079,0.0391,-0.0064,-0.0343,-0.0453,-0.0386,-0.0423,-0.0415,-0.0418,-0.0799,-0.0763,0,0,0,0,0]}],[{"header":{"parameterUnit":"m.s-1","parameterCategory":2,"la1":30.2991,"la2":30.254,"lo1":-89.0895,"lo2":-89.0444,"dy":0.0017,"dx":0.0017,"nx":28,"ny":28,"refTime":"2023-07-18T03:00:00:Z","depth":"4","parameterNumber":2,"parameterNumberName":"U-component_of_CURRENTS"},"data":[0,0,0,0,0,0,0,0,0,0,0,0,0,0,0,0,0,0,0,0,0,0,0,0,0,0,0,0,0,0,0,0,0,0,0,0,0,0,0,0,0,0,0,0,0,0,0,0,0,0,0,0,0,0,0,0,0,0,0.0574,0.0575,0,0.0666,0.0667,0.0668,0.0678,0.0677,0.0677,0.0676,0.0812,0.0817,0.0821,0,0,0,0,0,0,0,0,0,0,0,0,0,0.0514,0.0514,0.0574,0.0575,0.0577,0.0666,0.0667,0.0668,0.0678,0.0677,0.0676,0.0676,0.0811,0.0816,0.0821,0,0,0,0,0,0,0,0,0,0,0,0,0,0.0563,0.0514,0.0574,0.0594,0.0597,0.0666,0.0667,0.0668,0.0678,0.0677,0.0676,0.0675,0.0809,0.0816,0.0822,0.0882,0,0,0.0841,0.0844,0,0,0,0,0,0,0,0,0.056,0.0565,0.059,0.0593,0.0597,0.0662,0.0696,0.0743,0.0679,0.0645,0.0676,0.0675,0.0769,0.0778,0.0794,0.0889,0.0894,0.0842,0.0846,0.0849,0.085,0,0,0,0,0,0,0,0.0557,0.0562,0.0608,0.0592,0.0596,0.0636,0.0641,0.0705,0.071,0.0648,0.0649,0.0664,0.077,0.0787,0.0797,0.0896,0.0842,0.0848,0.0851,0.0854,0.1065,0.1066,0,0,0,0,0,0,0.0546,0.0558,0.0605,0.0611,0.0579,0.0638,0.0643,0.064,0.0709,0.0719,0.0665,0.0664,0.0777,0.079,0.0802,0.091,0.0849,0.0855,0.0858,0.1063,0.1065,0.1067,0,0,0,0,0,0,0.0544,0.0549,0.0601,0.059,0.06,0.0639,0.0636,0.0642,0.0679,0.0722,0.0732,0.0698,0.0777,0.0793,0.0874,0.0914,0.0858,0.0863,0.1061,0.1064,0.1066,0.1105,0,0,0,0,0,0,0.0542,0.0547,0.0556,0.0588,0.06,0.0647,0.0638,0.0645,0.069,0.0691,0.0754,0.0764,0.0777,0.0864,0.088,0.0921,0.0868,0.1059,0.1062,0.1065,0.1101,0.1109,0.1115,0,0,0,0,0,0.0539,0.0545,0.0555,0.0562,0.0605,0.0649,0.0659,0.0682,0.0693,0.0712,0.0758,0.0763,0.0895,0.0871,0.089,0.0934,0.1057,0.1061,0.1065,0.1099,0.1107,0.1115,0,0,0,0,0,0,0.052,0.0548,0.056,0.0573,0.0614,0.0651,0.0678,0.0702,0.0755,0.0764,0.0798,0.0812,0.0902,0.0914,0.0886,0.1002,0.0974,0.0982,0.0993,0.1002,0.1008,0.1049,0.0874,0,0,0,0,0,0.0523,0.0536,0.0573,0.0589,0.0609,0.0653,0.0682,0.0702,0.0748,0.077,0.0818,0.0869,0.0932,0.0961,0.1018,0.1087,0.1093,0.1123,0.1129,0.1135,0.118,0.121,0.1224,0.108,0.108,0.108,0,0,0.0517,0.0541,0.0546,0.0588,0.0621,0.0659,0.0667,0.0715,0.0757,0.0781,0.0861,0.0912,0.096,0.1035,0.1073,0.1048,0.1171,0.114,0.1144,0.1188,0.1216,0.123,0.1242,0.1083,0.1082,0.1082,0,0,0.0522,0.0539,0.0556,0.0594,0.0655,0.0681,0.0702,0.0761,0.0795,0.0884,0.0908,0.0981,0.1077,0.1108,0.1138,0.122,0.1218,0.1236,0.1294,0.1321,0.1334,0.1345,0.1331,0.134,0.1223,0.1223,0.1223,0,0.0518,0.0544,0.0572,0.061,0.0649,0.0693,0.0734,0.0778,0.086,0.091,0.0915,0.1079,0.1113,0.1204,0.1237,0.1238,0.1246,0.1255,0.133,0.1341,0.1352,0.1335,0.1346,0.1225,0.1225,0.1225,0.1224,0,0.0537,0.0572,0.059,0.0646,0.0692,0.0735,0.0797,0.0857,0.0917,0.0973,0.11,0.1155,0.1251,0.1264,0.1292,0.1387,0.1364,0.1343,0.1306,0.1369,0.1347,0.1356,0.1229,0.1228,0.1227,0.1226,0,0,0.0482,0.0581,0.059,0.0634,0.0719,0.0756,0.0837,0.0927,0.0995,0.1089,0.1188,0.1304,0.1355,0.1395,0.1419,0.1454,0.152,0.145,0.145,0.1432,0.1568,0.1489,0.1492,0.1517,0.152,0.1522,0.1507,0,0.0491,0.0562,0.0617,0.0696,0.0736,0.0816,0.0892,0.0986,0.1069,0.1172,0.1258,0.1373,0.139,0.1458,0.1498,0.1534,0.1558,0.1526,0.1518,0.1518,0.1437,0.1505,0.1532,0.1514,0.1516,0.1518,0.1519,0,0.0486,0.0542,0.061,0.0737,0.0765,0.0827,0.0959,0.1037,0.118,0.1258,0.1377,0.1456,0.1569,0.156,0.1642,0.1627,0.163,0.163,0.1628,0.1564,0.1461,0.1451,0.1537,0.1535,0.1534,0.1533,0.1532,0,0.0423,0.054,0.0595,0.0633,0.077,0.0841,0.0934,0.1072,0.1156,0.1327,0.1411,0.1537,0.1618,0.1661,0.1709,0.1689,0.1769,0.1707,0.1624,0.1615,0.1668,0.1657,0.1767,0.1767,0.1767,0.1767,0.1767,0,0.04,0.0446,0.0579,0.0606,0.0714,0.0826,0.095,0.1061,0.1214,0.1324,0.1461,0.1552,0.1663,0.1727,0.1735,0.1723,0.178,0.1672,0.1629,0.1677,0.1668,0.1672,0.1661,0.1766,0.1767,0.1767,0.1767,0,0.0311,0.0392,0.0455,0.0608,0.0681,0.0753,0.0967,0.1043,0.1205,0.1347,0.1422,0.1585,0.1674,0.1739,0.1798,0.1742,0.1741,0.1717,0.1769,0.1723,0.1548,0.154,0.1599,0.1597,0.1595,0.1593,0.1592,0,0.0276,0.0291,0.0435,0.0495,0.0573,0.0718,0.0824,0.1023,0.1108,0.1352,0.1403,0.1567,0.1664,0.166,0.1729,0.1725,0.1709,0.1679,0.1634,0.1591,0.1543,0.1537,0.1532,0.1589,0.1588,0.1588,0.1587,0,0.0194,0.0225,0.0277,0.0403,0.0514,0.0635,0.0807,0.0871,0.1097,0.1247,0.1386,0.1476,0.1558,0.1606,0.1637,0.1626,0.1687,0.1657,0.1659,0.1616,0.1578,0.1531,0.1528,0.158,0.1581,0.1582,0.1582,0,0.0125,0.0133,0.0205,0.0319,0.0434,0.0535,0.0644,0.0794,0.092,0.1204,0.124,0.1408,0.1548,0.1554,0.1576,0.1581,0.1536,0.147,0.1481,0.1489,0.1468,0.1404,0.1346,0,0,0,0,0,0.0079,0.0094,0.0151,0.0275,0.0368,0.0459,0.0626,0.073,0.0959,0.1027,0.1147,0.124,0.1334,0.1398,0.1376,0.1484,0.1509,0.1448,0.1429,0.1542,0.155,0.1538,0,0,0,0,0,0,0.0054,0.0082,0.0112,0.0203,0.0286,0.0406,0.05,0.0652,0.0709,0.0936,0.0981,0.1157,0.1238,0.1337,0.1351,0.1371,0.133,0.1552,0.1549,0.1537,0.1544,0.1551,0.1541,0,0,0,0,0]},{"header":{"parameterUnit":"m.s-1","parameterCategory":2,"la1":30.2991,"la2":30.254,"lo1":-89.0895,"lo2":-89.0444,"dy":0.0017,"dx":0.0017,"nx":28,"ny":28,"refTime":"2023-07-18T03:00:00:Z","depth":"4","parameterNumber":3,"parameterNumberName":"V-component_of_CURRENTS"},"data":[0,0,0,0,0,0,0,0,0,0,0,0,0,0,0,0,0,0,0,0,0,0,0,0,0,0,0,0,0,0,0,0,0,0,0,0,0,0,0,0,0,0,0,0,0,0,0,0,0,0,0,0,0,0,0,0,0,0,0.0353,0.0352,0,0.0316,0.0315,0.0314,0.028,0.0279,0.0279,0.0279,0.0215,0.0214,0.0212,0,0,0,0,0,0,0,0,0,0,0,0,0,0.0304,0.0306,0.0353,0.0352,0.0352,0.0316,0.0315,0.0314,0.028,0.0279,0.0279,0.0279,0.0216,0.0214,0.0212,0,0,0,0,0,0,0,0,0,0,0,0,0,0.03,0.0306,0.0353,0.0332,0.033,0.0316,0.0315,0.0314,0.028,0.0279,0.0279,0.0279,0.0216,0.0214,0.0212,0.0205,0,0,0.0205,0.0204,0,0,0,0,0,0,0,0,0.0301,0.0302,0.0336,0.0334,0.0331,0.0304,0.0275,0.0277,0.028,0.0296,0.0279,0.0279,0.0244,0.024,0.0231,0.0202,0.0199,0.0205,0.0204,0.0203,0.0202,0,0,0,0,0,0,0,0.0301,0.0303,0.0336,0.0335,0.0333,0.0295,0.0294,0.0274,0.027,0.0295,0.0293,0.0293,0.0243,0.0233,0.0229,0.0198,0.0205,0.0203,0.0202,0.0201,0.0134,0.0134,0,0,0,0,0,0,0.0316,0.0304,0.0337,0.0335,0.0317,0.0296,0.0296,0.0311,0.0271,0.0266,0.0293,0.0291,0.0237,0.0231,0.0226,0.0219,0.0203,0.0201,0.0199,0.0135,0.0134,0.0134,0,0,0,0,0,0,0.0315,0.032,0.0338,0.0319,0.0319,0.0298,0.0315,0.0311,0.0307,0.027,0.0264,0.0295,0.0236,0.023,0.0209,0.0216,0.02,0.0198,0.0135,0.0135,0.0134,0.0203,0,0,0,0,0,0,0.0314,0.032,0.034,0.0321,0.0321,0.0343,0.0316,0.031,0.0308,0.0305,0.027,0.0263,0.0236,0.0213,0.0207,0.0213,0.0196,0.0136,0.0135,0.0134,0.0201,0.0205,0.0208,0,0,0,0,0,0.0313,0.0347,0.0342,0.0346,0.0349,0.0344,0.0341,0.0321,0.0308,0.0315,0.0282,0.0264,0.0203,0.0211,0.0205,0.021,0.0136,0.0135,0.0134,0.02,0.0204,0.0207,0,0,0,0,0,0,0.0341,0.0346,0.034,0.0376,0.0365,0.0339,0.0347,0.033,0.0309,0.0307,0.0265,0.0257,0.0237,0.0212,0.0222,0.0184,0.0164,0.0162,0.0216,0.022,0.0223,0.0212,0.0194,0,0,0,0,0,0.0357,0.0384,0.0372,0.0401,0.0398,0.0372,0.0369,0.0356,0.0334,0.0325,0.0297,0.0261,0.0227,0.0216,0.0184,0.0174,0.0124,0.0168,0.0171,0.0174,0.0158,0.0072,0.0066,0.0131,0.0131,0.0131,0,0,0.0376,0.0384,0.0398,0.0408,0.0397,0.0398,0.037,0.0374,0.037,0.0322,0.0311,0.0274,0.0224,0.0206,0.0195,0.0189,0.0138,0.0173,0.0177,0.0158,0.007,0.0064,0.0058,0.013,0.013,0.013,0,0,0.0415,0.0433,0.0458,0.0454,0.0449,0.0431,0.0435,0.0413,0.04,0.0387,0.0341,0.0304,0.0271,0.0226,0.0201,0.0201,0.0154,0.0198,0.0212,0.0131,0.0125,0.0118,0.0086,0.0076,0.0205,0.0205,0.0205,0,0.0433,0.0465,0.0462,0.0477,0.0475,0.0448,0.0457,0.0443,0.0416,0.0397,0.0395,0.0303,0.0274,0.0219,0.022,0.0209,0.0167,0.0209,0.0135,0.0128,0.012,0.0087,0.0076,0.0208,0.0207,0.0207,0.0207,0,0.0477,0.0502,0.0516,0.0524,0.0523,0.0532,0.0508,0.0503,0.0484,0.0452,0.0402,0.0349,0.0287,0.0279,0.0253,0.0186,0.0178,0.0149,0.013,0.0118,0.0085,0.0071,0.0212,0.0211,0.021,0.021,0,0,0.0505,0.054,0.0543,0.055,0.0548,0.0547,0.0548,0.0522,0.0504,0.0472,0.043,0.0372,0.0326,0.0291,0.0247,0.0183,0.0118,0.0151,0.0145,0.0127,-0.0034,-0.0038,-0.0053,0.0073,0.007,0.0068,-0.0021,0,0.0529,0.0571,0.0579,0.0601,0.0608,0.0592,0.0592,0.0567,0.053,0.0487,0.0416,0.0362,0.0336,0.0304,0.0235,0.0134,0.0078,0.0147,-0.003,-0.0034,-0.0031,-0.0071,0.0059,-0.0032,-0.0035,-0.0037,-0.0039,0,0.0545,0.0575,0.0608,0.0627,0.0629,0.0643,0.0619,0.0614,0.0549,0.0518,0.0445,0.0379,0.0285,0.0262,0.0091,0.0134,0.0053,-0.0017,-0.0023,-0.0069,-0.0066,-0.0031,-0.0064,-0.0062,-0.006,-0.0058,-0.0057,0,0.0533,0.0581,0.061,0.0618,0.0642,0.0655,0.0664,0.0622,0.0605,0.0526,0.0489,0.037,0.0301,0.0174,0.0039,0.0055,-0.0154,-0.0149,-0.0224,-0.0223,-0.0219,-0.0212,-0.0284,-0.0284,-0.0283,-0.0283,-0.0283,0,0.0528,0.0549,0.0617,0.063,0.0666,0.0673,0.0679,0.0666,0.0625,0.0592,0.0502,0.0435,0.0266,0.0133,0.0024,-0.0143,-0.0168,-0.0241,-0.0266,-0.0181,-0.0169,-0.0226,-0.0218,-0.0286,-0.0286,-0.0285,-0.0284,0,0.0492,0.0532,0.0572,0.0635,0.0659,0.0681,0.0717,0.0709,0.0674,0.0625,0.0601,0.0459,0.0287,0.0126,-0.0091,-0.0164,-0.0318,-0.0369,-0.0246,-0.0259,-0.0316,-0.0303,-0.0453,-0.0454,-0.0455,-0.0456,-0.0457,0,0.0476,0.0499,0.0586,0.0621,0.0657,0.0702,0.0729,0.0731,0.0719,0.0638,0.0606,0.0437,0.0329,0.0034,-0.0134,-0.0348,-0.0376,-0.043,-0.0395,-0.0334,-0.0343,-0.0329,-0.0315,-0.0459,-0.0459,-0.0459,-0.046,0,0.0461,0.0498,0.0542,0.0622,0.0672,0.071,0.0752,0.0746,0.073,0.0705,0.0593,0.044,0.0238,0.0024,-0.0157,-0.0305,-0.0383,-0.0442,-0.044,-0.0407,-0.0343,-0.0348,-0.0333,-0.0464,-0.0463,-0.0463,-0.0462,0,0.0464,0.0492,0.0564,0.0615,0.0677,0.0701,0.0725,0.0722,0.0711,0.0646,0.0605,0.0408,0.0294,0.0043,-0.0121,-0.0277,-0.03,-0.0315,-0.032,-0.0317,-0.0255,-0.0151,-0.0255,0,0,0,0,0,0.0473,0.0498,0.0555,0.0616,0.0668,0.0695,0.0731,0.0744,0.0739,0.067,0.0644,0.0466,0.0206,0.0079,-0.008,-0.0147,-0.0335,-0.0336,-0.0355,-0.0485,-0.0481,-0.0432,0,0,0,0,0,0,0.0485,0.0537,0.0548,0.0593,0.0628,0.068,0.0695,0.0696,0.0658,0.0639,0.0492,0.0448,0.0179,0.0292,-0.008,-0.0129,-0.0155,-0.0456,-0.0458,-0.0488,-0.0484,-0.048,-0.0428,0,0,0,0,0]}]]